STARLINK-34045, 63979

Orbit data source: Space-Track

STARLINK-34045, 63979 is a payload satellite owned by SpaceX/Seattle (US) in LEO that was launched on Tue, 13 May 2025 UTC via an FALCON 9 launch vehicle from the Air Force Eastern Test Range (AFETR). Payload-class satellites include a variety of spacecraft equipped with specific instruments for various scientific and technological missions. These include communications satellites like Starlink; space stations such as the ISS; scientific satellites like the Hubble; Earth observation satellites from companies like Planet Labs, Umbra, and HawkEye 360; GPS; miniature CubeSats for education and research; and military/defense satellites.

Loading next visibility...
Identifier
63979, 2025-099AD
Orbit
LEO
Country
Flag of USUS
Related business
Manufacturer
SpaceX/Seattle
Mission
Operational Commercial Communications
Bus & Motor
STARLINK V2MO, Unknown motor
Mass
575 kg wet, ~530 kg dry
Launch date (UTC)
2025-05-13 (7 months ago)
Launch vehicle
FALCON 9
Launch site
Air Force Eastern Test Range (AFETR)
Object type
Payload
Rocket body
Debris
Shape & HBR
Box + 2 Pan, 17.7 m
Radar Cross Section
36.964 m², Large (>1 m²)

Expand to show TLE details & history
Last TLE update: 1 day ago

TLE from 1 day ago
0 STARLINK-34045
1 63979U 25099AD  25346.24207346  .00033683  00000-0  12288-2 0  9993
2 63979  43.0014 306.4923 0001695 271.2257  88.8401 15.27557664 33915
Epoch: 2025-12-12T05:48Z
TLE epoch observation values (Epoch: 2025-12-12T05:48:35.146Z)
Latitude
-0°
Longitude
138.15935°
Altitude
482.868 km
Speed
7.626 km/s
True Right ascension
20h 25m 58s
True Declination
0° 00' 00"
Sunlit
Object was in daylight at epoch
Visualization orbit readout
Latitude
Unknown
Longitude
Unknown
Altitude
Unknown
Speed
Unknown
Apparent Right ascension
Unknown
Apparent Declination
Unknown
Sunlit
N/A
Visualization observer readout
Local Sidereal Time
09:17:54
Azimuth
Unknown
Elevation
Unknown
Doppler factor
Unknown
Orbital elements
Apogee altitude
486.224 km
Perigee altitude
483.898 km
Semi-major axis
6,863.198 km
Eccentricity
0.00017
Inclination
43.0014°
RAAN
306.4923°
Arg. of periapsis
271.2257°
True anomaly
88.85952°
Mean anomaly
88.8401°
Eccentric anomaly
88.84981°
Mean motion
3.81727 °/min
Orbital period
94.31 mins
BSTAR
0.0012288
Loading maneuver chart data...
Computing Atmospheric mass density...
Loading historical data...
Loading historical data...
Loading historical data...
Loading historical data...
Loading historical data...
Loading historical data...
Loading historical data...

Documentation

Showing up to 5 results
|